Location: Antioch
(38.0049°N, 121.8058°W)
Time: 03:06:42
(UTC+00:00)

Exosat Rocket - Pass Details

Date: 11 February 2026
Orbit: 761 x 2512 km, 72.3° (Epoch: 7 March)

Event Time Altitude Azimuth Distance (km) Brightness Sun altitude
Rises 13:46:19 0° 336° (NNW) 3,606 6.7 -15.3°
Reaches altitude 10° 13:49:00 10° 334° (NNW) 2,512 5.9 -14.8°
Maximum altitude 13:54:23 65° 253° (WSW) 853 3.5 -13.8°
Drops below altitude 10° 13:59:17 10° 172° (S) 2,296 6.2 -12.8°
Sets 14:01:39 0° 169° (S) 3,268 7.0 -12.3°
